This is the latest recevied weather packets stored in our database for station/object IU1OLT-7. If no packets are shown the sender has not sent any weather packets the latest 10 day(s).
| Time | Temp. | Humidity | Pressure | Rain* | Wind** | Luminosity | Snow |
|---|---|---|---|---|---|---|---|
| 1776987306 | 15° C | 6% | 1021.5 hPa | - | - | - | - |
| 1776986406 | 13.89° C | 5% | 1021.6 hPa | - | - | - | - |
| 1776985507 | 15° C | 6% | 1021.6 hPa | - | - | - | - |
| 1776984607 | 15.56° C | 6% | 1021.7 hPa | - | - | - | - |
| 1776983706 | 16.11° C | 6% | 1021.7 hPa | - | - | - | - |
| 1776982806 | 16.11° C | 4% | 1021.7 hPa | - | - | - | - |
| 1776981901 | 15° C | 5% | 1021.9 hPa | - | - | - | - |
| 1776981001 | 15.56° C | 5% | 1022 hPa | - | - | - | - |
| 1776980101 | 15.56° C | 6% | 1021.9 hPa | - | - | - | - |
| 1776979201 | 15.56° C | 9% | 1022 hPa | - | - | - | - |
| 1776978301 | 14.44° C | 6% | 1022 hPa | - | - | - | - |
| 1776977401 | 14.44° C | 8% | 1022 hPa | - | - | - | - |
| 1776975601 | 14.44° C | 11% | 1021.9 hPa | - | - | - | - |
| 1776973801 | 13.89° C | 13% | 1021.8 hPa | - | - | - | - |
| 1776972901 | 13.89° C | 16% | 1021.8 hPa | - | - | - | - |
| 1776972001 | 14.44° C | 20% | 1021.8 hPa | - | - | - | - |
| 1776971101 | 13.89° C | 25% | 1021.7 hPa | - | - | - | - |
| 1776970234 | 13.89° C | 20% | 1021.7 hPa | - | - | - | - |
| 1776970201 | 13.89° C | 20% | 1021.7 hPa | - | - | - | - |
| 1776968401 | 14.44° C | 20% | 1021.7 hPa | - | - | - | - |
| 1776967501 | 16.67° C | 21% | 1021.6 hPa | - | - | - | - |
| 1776966601 | 20.56° C | 18% | 1021.5 hPa | - | - | - | - |
| 1776965701 | 22.78° C | 15% | 1021.4 hPa | - | - | - | - |
| 1776964801 | 23.89° C | 13% | 1021.3 hPa | - | - | - | - |
| 1776963901 | 25° C | 13% | 1021.3 hPa | - | - | - | - |
* Rain since midnight (hover to see other rain measurements)
** Current wind speed in m/s (hover to see current wind gust speed)